Warton, United Kingdom
Current Conditions -  °F | °C
As of 11:20 AM on Monday 22 Dec 2014 (Local Time) from EGNO Reporting Station
Scattered Clouds Scattered Clouds  
Wind Chill: 52°   Ceiling: Unl
Heat Index: 52°   Visibility: 5mi
Dew Point: 50°   Wind: 24mph
Humidity: 94%   Direction: 240°WSW
Pressure: 29.83"   Gusts: NA
Location:  53.77°N, 2.88°W
Report Text: EGNO 221120Z 24021KT 8000 FEW008 SCT024 11/10 Q1010
Loading
Personal Weather Stations






























Interactive Weather Map New forecast layout! Learn more

10-Day Weather Forecast

Advertisements
Track Severe Weather on mobile